CW5917 Weather Reports


Display with metric or nautical units.
time (UTC)temp
F
wind
direction
speed
MPH
gust
MPH
rain 1hr
in
rain 24hr
in
rain mn
in
humidity
%
barometer
mb
20260507141535 49 234 5.0 9.0 0.00 0.00 0.00 51 1014.3
20260507141051 49 211 6.0 9.0 0.00 0.00 0.00 51 1014.3
20260507140524 48 205 5.0 9.0 0.00 0.00 0.00 54 1014.4
20260507140032 47 234 5.0 10.0 0.00 0.00 0.00 56 1014.4
20260507135528 46 207 7.0 12.0 0.00 0.00 0.00 55 1014.5
20260507135018 45 227 8.0 12.0 0.00 0.00 0.00 55 1014.5
20260507134537 45 217 7.0 10.0 0.00 0.00 0.00 56 1014.6
20260507134029 45 242 4.0 10.0 0.00 0.00 0.00 57 1014.7
20260507133522 45 228 7.0 14.0 0.00 0.00 0.00 59 1014.7
20260507133028 44 238 7.0 14.0 0.00 0.00 0.00 60 1014.7
20260507132525 43 205 7.0 11.0 0.00 0.00 0.00 62 1014.8
20260507132021 42 213 7.0 10.0 0.00 0.00 0.00 62 1014.9
20260507131557 42 227 6.0 10.0 0.00 0.00 0.00 63 1015.0
20260507131029 41 221 6.0 10.0 0.00 0.00 0.00 64 1015.1
20260507130525 41 227 7.0 10.0 0.00 0.00 0.00 65 1015.0
20260507130035 40 188 7.0 10.0 0.00 0.00 0.00 66 1015.1
20260507125544 39 234 6.0 9.0 0.00 0.00 0.00 67 1015.0
20260507125042 39 229 5.0 8.0 0.00 0.00 0.00 69 1015.1
20260507124555 38 202 6.0 8.0 0.00 0.00 0.00 70 1015.2
20260507124044 38 213 5.0 8.0 0.00 0.00 0.00 71 1015.1
20260507123537 37 221 5.0 8.0 0.00 0.00 0.00 72 1015.2
20260507123032 37 225 5.0 8.0 0.00 0.00 0.00 73 1015.2
20260507122538 36 216 5.0 8.0 0.00 0.00 0.00 74 1015.2
20260507122024 36 213 4.0 7.0 0.00 0.00 0.00 74 1015.2
20260507121537 35 209 6.0 7.0 0.00 0.00 0.00 74 1015.1
20260507121034 35 208 5.0 6.0 0.00 0.00 0.00 74 1015.1
20260507120533 35 236 4.0 7.0 0.00 0.00 0.00 75 1015.1
20260507120043 35 229 5.0 7.0 0.00 0.00 0.00 75 1015.2
20260507115523 35 222 5.0 8.0 0.00 0.00 0.00 75 1015.1
20260507115035 35 230 6.0 8.0 0.00 0.00 0.00 75 1015.1
20260507114537 35 228 5.0 9.0 0.00 0.00 0.00 75 1015.0
20260507114033 35 227 6.0 9.0 0.00 0.00 0.00 75 1014.9
20260507113546 34 225 5.0 7.0 0.00 0.00 0.00 75 1014.9
20260507113040 34 226 5.0 7.0 0.00 0.00 0.00 75 1014.9
20260507112530 34 227 4.0 7.0 0.00 0.00 0.00 75 1014.7
20260507112033 34 217 5.0 7.0 0.00 0.00 0.00 75 1014.7
20260507111534 34 210 4.0 7.0 0.00 0.00 0.00 75 1014.6
20260507111038 34 219 5.0 7.0 0.00 0.00 0.00 75 1014.6
20260507110552 34 212 5.0 7.0 0.00 0.00 0.00 75 1014.6
20260507110038 34 223 5.0 6.0 0.00 0.00 0.00 75 1014.7
20260507105535 34 223 5.0 6.0 0.00 0.00 0.00 75 1014.6
20260507105037 34 225 5.0 7.0 0.00 0.00 0.00 75 1014.7
20260507104525 34 217 5.0 7.0 0.00 0.00 0.00 75 1014.8
20260507104040 34 217 5.0 7.0 0.00 0.00 0.00 75 1014.7
20260507103536 34 227 4.0 6.0 0.00 0.00 0.00 75 1014.7
20260507103033 34 215 5.0 6.0 0.00 0.00 0.00 75 1014.7
20260507102529 34 210 5.0 6.0 0.00 0.00 0.00 75 1014.7
20260507102044 34 214 3.0 7.0 0.00 0.00 0.00 75 1014.7
20260507101537 34 214 5.0 7.0 0.00 0.00 0.00 76 1014.7
20260507101032 34 217 5.0 7.0 0.00 0.00 0.00 76 1014.8
20260507100538 33 217 5.0 7.0 0.00 0.00 0.00 76 1014.7
20260507100033 33 219 5.0 6.0 0.00 0.00 0.00 76 1014.8
20260507095538 33 221 5.0 6.0 0.00 0.00 0.00 77 1014.8
20260507095053 33 203 5.0 6.0 0.00 0.00 0.00 77 1014.7
20260507094521 33 211 4.0 6.0 0.00 0.00 0.00 77 1014.9
20260507094035 33 219 5.0 6.0 0.00 0.00 0.00 78 1014.9
20260507093529 33 213 4.0 6.0 0.00 0.00 0.00 78 1014.9
20260507093045 33 222 5.0 6.0 0.00 0.00 0.00 78 1014.9
20260507092535 32 236 4.0 6.0 0.00 0.00 0.00 78 1015.0
20260507092019 32 227 3.0 5.0 0.00 0.00 0.00 79 1014.9
20260507091555 32 227 3.0 5.0 0.00 0.00 0.00 79 1014.8
20260507091036 32 227 4.0 5.0 0.00 0.00 0.00 79 1014.8
20260507090521 32 228 3.0 6.0 0.00 0.00 0.00 80 1014.9
20260507090019 31 210 4.0 6.0 0.00 0.00 0.00 80 1014.8
20260507085554 31 223 4.0 6.0 0.00 0.00 0.00 80 1014.8
20260507085025 31 219 5.0 6.0 0.00 0.00 0.00 80 1014.8
20260507084518 30 221 3.0 5.0 0.00 0.00 0.00 80 1015.0
20260507084022 30 207 3.0 5.0 0.00 0.00 0.00 79 1015.0
20260507083533 30 207 3.0 5.0 0.00 0.00 0.00 79 1015.0
20260507083054 30 207 2.0 3.0 0.00 0.00 0.00 79 1015.0
20260507082545 30 207 1.0 4.0 0.00 0.00 0.00 79 1015.0
20260507082024 30 207 2.0 4.0 0.00 0.00 0.00 79 1015.0
20260507081526 30 207 2.0 5.0 0.00 0.00 0.00 78 1015.0
20260507081021 31 211 4.0 5.0 0.00 0.00 0.00 78 1015.0
20260507080537 31 217 3.0 3.0 0.00 0.00 0.00 78 1015.1
20260507080045 31 217 2.0 3.0 0.00 0.00 0.00 77 1015.1
20260507075554 31 217 0.0 1.0 0.00 0.00 0.00 78 1015.0
20260507075039 31 217 0.0 1.0 0.00 0.00 0.00 78 1015.1
20260507074536 31 217 0.0 2.0 0.00 0.00 0.00 78 1015.0
20260507074021 32 217 1.0 3.0 0.00 0.00 0.00 78 1015.0
20260507073519 32 217 2.0 3.0 0.00 0.00 0.00 78 1015.1
20260507073026 32 217 2.0 3.0 0.00 0.00 0.00 77 1015.0
20260507072521 32 217 2.0 3.0 0.00 0.00 0.00 77 1015.1
20260507072034 32 217 1.0 2.0 0.00 0.00 0.00 76 1015.1
20260507071536 32 217 1.0 2.0 0.00 0.00 0.00 74 1015.1
20260507071031 32 217 0.0 2.0 0.00 0.00 0.00 74 1015.2
20260507070544 32 217 0.0 1.0 0.00 0.00 0.00 74 1015.3
20260507070034 32 217 0.0 0.0 0.00 0.00 0.00 73 1015.3
20260507065526 32 217 0.0 3.0 0.00 0.00 0.00 73 1015.4
20260507065021 32 217 1.0 4.0 0.00 0.00 0.00 72 1015.5
20260507064524 32 217 3.0 4.0 0.00 0.00 0.00 72 1015.6
20260507064034 32 313 3.0 4.0 0.00 0.00 0.00 72 1015.6
20260507063539 32 313 3.0 3.0 0.00 0.00 0.00 71 1015.6
20260507063020 32 313 2.0 2.0 0.00 0.00 0.00 70 1015.6
20260507062554 32 313 1.0 2.0 0.00 0.00 0.00 70 1015.7
20260507062021 32 313 1.0 3.0 0.00 0.00 0.00 69 1015.8
20260507061535 33 313 2.0 3.0 0.00 0.00 0.00 68 1015.9
20260507061030 33 313 1.0 2.0 0.00 0.00 0.00 68 1016.0
20260507060521 33 313 0.0 1.0 0.00 0.00 0.00 68 1015.9
20260507060038 33 313 0.0 2.0 0.00 0.00 0.00 68 1015.9
20260507055524 33 313 0.0 2.0 0.00 0.00 0.00 67 1015.9
20260507055034 33 313 0.0 1.0 0.00 0.00 0.00 67 1015.9
20260507054533 34 313 0.0 1.0 0.00 0.00 0.00 66 1015.9
20260507054037 34 313 0.0 1.0 0.00 0.00 0.00 66 1015.9
20260507053534 34 313 0.0 1.0 0.00 0.00 0.00 66 1015.9
20260507053052 34 313 0.0 1.0 0.00 0.00 0.00 66 1015.9
20260507052546 34 313 0.0 1.0 0.00 0.00 0.00 65 1016.1
20260507052021 34 313 0.0 0.0 0.00 0.00 0.00 65 1016.1
20260507051537 35 313 0.0 0.0 0.00 0.00 0.00 65 1015.9
20260507051035 35 313 0.0 1.0 0.00 0.00 0.00 64 1016.1
20260507050529 35 313 0.0 1.0 0.00 0.00 0.00 64 1016.1
20260507050035 35 313 0.0 0.0 0.00 0.00 0.00 63 1016.2
20260507045518 35 313 0.0 0.0 0.00 0.00 0.00 61 1016.1
20260507045033 35 313 0.0 0.0 0.00 0.00 0.00 61 1016.0
20260507044520 36 313 0.0 0.0 0.00 0.00 0.00 60 1016.2
20260507044040 36 313 0.0 1.0 0.00 0.00 0.00 60 1016.1
20260507043536 36 313 0.0 1.0 0.00 0.00 0.00 60 1016.0
20260507043040 37 313 0.0 1.0 0.00 0.00 0.00 59 1016.2
20260507042546 37 313 0.0 2.0 0.00 0.00 0.00 59 1016.1
20260507042057 37 313 1.0 2.0 0.00 0.00 0.00 58 1016.2
20260507041535 38 313 1.0 2.0 0.00 0.00 0.00 58 1016.2
20260507041030 38 313 1.0 2.0 0.00 0.00 0.00 58 1016.3
20260507040537 38 313 1.0 2.0 0.00 0.00 0.00 58 1016.2
20260507040024 39 313 1.0 3.0 0.00 0.00 0.00 58 1016.3
20260507035545 39 313 2.0 3.0 0.00 0.00 0.00 58 1016.3
20260507035036 39 313 2.0 4.0 0.00 0.00 0.00 57 1016.3
20260507034535 39 313 2.0 4.0 0.00 0.00 0.00 57 1016.4
20260507034020 40 313 2.0 4.0 0.00 0.00 0.00 57 1016.4
20260507033534 40 313 3.0 4.0 0.00 0.00 0.00 57 1016.5
20260507033031 40 313 2.0 4.0 0.00 0.00 0.00 57 1016.4
20260507032526 40 313 3.0 5.0 0.00 0.00 0.00 56 1016.4
20260507032032 41 313 2.0 5.0 0.00 0.00 0.00 55 1016.5
20260507031540 41 313 2.0 4.0 0.00 0.00 0.00 55 1016.4
20260507031040 41 313 3.0 5.0 0.00 0.00 0.00 54 1016.4
20260507030525 41 313 3.0 5.0 0.00 0.00 0.00 54 1016.5
20260507030034 42 309 3.0 6.0 0.00 0.00 0.00 54 1016.4
20260507025539 42 311 4.0 9.0 0.00 0.00 0.00 54 1016.4
20260507025022 42 303 5.0 10.0 0.00 0.00 0.00 53 1016.4
20260507024536 42 306 6.0 11.0 0.00 0.00 0.00 53 1016.4
20260507024100 42 313 7.0 11.0 0.00 0.00 0.00 53 1016.2
20260507023551 42 304 8.0 11.0 0.00 0.00 0.00 52 1016.3
20260507023040 43 315 6.0 10.0 0.00 0.00 0.00 52 1016.2
20260507022533 43 292 5.0 10.0 0.00 0.00 0.00 51 1016.2
20260507022025 43 306 6.0 12.0 0.00 0.00 0.00 51 1016.1
20260507021532 43 316 7.0 12.0 0.00 0.00 0.00 51 1016.0
20260507021037 43 313 7.0 14.0 0.00 0.00 0.00 50 1015.9
20260507020559 44 299 9.0 14.0 0.00 0.00 0.00 50 1015.9
20260507020035 44 317 11.0 14.0 0.00 0.00 0.00 50 1015.8
20260507015547 44 311 8.0 14.0 0.00 0.00 0.00 49 1015.7
20260507015041 44 294 9.0 14.0 0.00 0.00 0.00 49 1015.7
20260507014525 44 308 8.0 10.0 0.00 0.00 0.00 49 1015.6
20260507014019 44 290 3.0 10.0 0.00 0.00 0.00 49 1015.5
20260507013538 44 316 5.0 13.0 0.00 0.00 0.00 49 1015.4
20260507013033 44 307 6.0 13.0 0.00 0.00 0.00 48 1015.5
20260507012521 44 298 7.0 11.0 0.00 0.00 0.00 48 1015.5
20260507012036 45 317 7.0 12.0 0.00 0.00 0.00 48 1015.5
20260507011600 45 299 8.0 12.0 0.00 0.00 0.00 48 1015.6
20260507011034 45 315 8.0 14.0 0.00 0.00 0.00 49 1015.5
20260507010521 45 309 7.0 14.0 0.00 0.00 0.00 48 1015.4
20260507010031 45 333 4.0 11.0 0.00 0.00 0.00 48 1015.4
20260507005537 45 293 5.0 11.0 0.00 0.00 0.00 48 1015.5
20260507005037 45 293 6.0 12.0 0.00 0.00 0.00 47 1015.4
20260507004543 45 305 7.0 14.0 0.00 0.00 0.00 47 1015.3
20260507004035 45 312 9.0 14.0 0.00 0.00 0.00 47 1015.3
20260507003531 46 303 9.0 13.0 0.00 0.00 0.00 47 1015.4
20260507003033 46 244 9.0 17.0 0.00 0.00 0.00 47 1015.3
20260507002557 46 326 10.0 17.0 0.00 0.00 0.00 47 1015.3
20260507002021 46 312 8.0 15.0 0.00 0.00 0.00 47 1015.3
20260507001531 46 284 9.0 15.0 0.00 0.00 0.00 47 1015.3
20260507001023 46 280 7.0 14.0 0.00 0.00 0.00 47 1015.2
20260507000555 46 292 8.0 15.0 0.00 0.00 0.00 46 1015.2
20260507000035 46 300 8.0 15.0 0.00 0.00 0.00 45 1015.2
20260506235529 47 300 11.0 16.0 0.00 0.00 0.00 45 1015.1
20260506235042 47 313 11.0 16.0 0.00 0.00 0.00 45 1015.2
20260506234535 46 303 9.0 18.0 0.00 0.00 0.00 46 1015.2
20260506234038 47 313 9.0 18.0 0.00 0.00 0.00 46 1015.2
20260506233533 47 298 10.0 19.0 0.00 0.00 0.00 45 1015.2
20260506233034 47 307 13.0 19.0 0.00 0.00 0.00 45 1015.3
20260506232529 47 298 13.0 19.0 0.00 0.00 0.00 45 1015.3
20260506232033 47 313 14.0 20.0 0.00 0.00 0.00 44 1015.2
20260506231529 47 307 13.0 21.0 0.00 0.00 0.00 44 1015.3
20260506231018 47 283 12.0 21.0 0.00 0.00 0.00 45 1015.1
20260506230533 47 302 8.0 18.0 0.00 0.00 0.00 45 1015.1
20260506230037 47 308 10.0 18.0 0.00 0.00 0.00 44 1015.1
20260506225739 48 296 9.0 18.0 0.00 0.00 0.00 43 1015.1
20260506225037 49 297 9.0 19.0 0.00 0.00 0.00 43 1015.0
20260506224523 50 285 13.0 26.0 0.00 0.00 0.00 42 1015.0
20260506224058 50 255 14.0 26.0 0.00 0.00 0.00 42 1015.0
20260506223529 50 289 11.0 19.0 0.00 0.00 0.00 44 1015.0
20260506223024 50 254 9.0 19.0 0.00 0.00 0.00 43 1015.0
20260506222519 49 306 11.0 23.0 0.00 0.00 0.00 44 1014.9
20260506222028 49 275 13.0 23.0 0.00 0.00 0.00 45 1014.9
20260506221519 49 250 12.0 23.0 0.00 0.00 0.00 44 1014.9
20260506221033 49 274 14.0 23.0 0.00 0.00 0.00 44 1014.9
20260506220538 50 293 13.0 22.0 0.00 0.00 0.00 44 1014.8
20260506220028 49 295 13.0 20.0 0.00 0.00 0.00 44 1014.8
20260506215523 49 262 12.0 18.0 0.00 0.00 0.00 43 1014.6
20260506215035 50 310 12.0 20.0 0.00 0.00 0.00 43 1014.6
20260506214537 50 292 15.0 20.0 0.00 0.00 0.00 43 1014.5
20260506214032 49 243 11.0 20.0 0.00 0.00 0.00 45 1014.4
20260506213537 49 290 12.0 20.0 0.00 0.00 0.00 45 1014.4
20260506213036 49 321 11.0 19.0 0.00 0.00 0.00 45 1014.4
20260506212552 49 282 10.0 22.0 0.00 0.00 0.00 44 1014.4
20260506212021 49 265 15.0 22.0 0.00 0.00 0.00 44 1014.4
20260506211529 49 294 11.0 21.0 0.00 0.00 0.00 43 1014.4
20260506211022 50 311 11.0 19.0 0.00 0.00 0.00 43 1014.4
20260506210541 50 298 10.0 19.0 0.00 0.00 0.00 44 1014.4
20260506210034 50 309 12.0 20.0 0.00 0.00 0.00 42 1014.4
20260506205526 50 327 13.0 21.0 0.00 0.00 0.00 42 1014.4
20260506205021 51 273 10.0 15.0 0.00 0.00 0.00 44 1014.2
20260506204531 51 311 8.0 15.0 0.00 0.00 0.00 44 1014.3
20260506204029 51 296 10.0 17.0 0.00 0.00 0.00 43 1014.4
20260506203525 51 273 10.0 17.0 0.00 0.00 0.00 43 1014.3
20260506203030 51 277 10.0 19.0 0.00 0.00 0.00 43 1014.3
20260506202522 51 290 15.0 19.0 0.00 0.00 0.00 41 1014.2
20260506202030 52 306 9.0 17.0 0.00 0.00 0.00 42 1014.3
20260506201521 52 275 11.0 17.0 0.00 0.00 0.00 41 1014.3
20260506201035 52 280 10.0 19.0 0.00 0.00 0.00 41 1014.2
20260506200537 52 311 11.0 19.0 0.00 0.00 0.00 42 1014.2
20260506200035 51 306 6.0 15.0 0.00 0.00 0.00 42 1014.2
20260506195521 51 311 11.0 18.0 0.00 0.00 0.00 42 1014.3
20260506195037 51 312 10.0 18.0 0.00 0.00 0.00 41 1014.4
20260506194536 51 307 11.0 18.0 0.00 0.00 0.00 41 1014.3
20260506194106 52 282 11.0 18.0 0.00 0.00 0.00 41 1014.3
20260506193537 52 277 10.0 20.0 0.00 0.00 0.00 42 1014.4
20260506193031 52 250 11.0 20.0 0.00 0.00 0.00 41 1014.3
20260506192547 53 301 9.0 15.0 0.00 0.00 0.00 40 1014.2
20260506192019 54 303 9.0 19.0 0.00 0.00 0.00 40 1014.3
20260506191518 55 300 14.0 19.0 0.00 0.00 0.00 39 1014.2
20260506191030 55 269 10.0 19.0 0.00 0.00 0.00 40 1014.1
20260506190544 56 282 9.0 15.0 0.00 0.00 0.00 40 1014.1
20260506190021 55 287 11.0 15.0 0.00 0.00 0.00 40 1014.1
20260506185534 56 292 6.0 16.0 0.00 0.00 0.00 39 1014.1
20260506185020 55 321 10.0 16.0 0.00 0.00 0.00 42 1014.2
20260506184526 55 297 10.0 15.0 0.00 0.00 0.00 40 1014.1
20260506184020 56 266 7.0 14.0 0.00 0.00 0.00 40 1014.2
20260506183557 56 260 6.0 15.0 0.00 0.00 0.00 44 1014.1
20260506183028 56 273 10.0 15.0 0.00 0.00 0.00 43 1014.1
20260506182520 54 287 10.0 15.0 0.00 0.00 0.00 40 1014.1
20260506182059 54 284 8.0 13.0 0.00 0.00 0.00 42 1014.2
20260506181528 54 331 7.0 17.0 0.00 0.00 0.00 44 1014.1
20260506181025 54 322 10.0 17.0 0.00 0.00 0.00 43 1014.1
20260506180538 54 322 10.0 14.0 0.00 0.00 0.00 40 1014.2
20260506180024 54 302 10.0 14.0 0.00 0.00 0.00 42 1014.2
20260506175520 53 308 10.0 16.0 0.00 0.00 0.00 46 1014.2
20260506175017 52 239 8.0 18.0 0.00 0.00 0.00 43 1014.4
20260506174543 53 248 11.0 18.0 0.00 0.00 0.00 42 1014.3
20260506174052 53 302 8.0 17.0 0.00 0.00 0.00 45 1014.3
20260506173538 52 296 6.0 16.0 0.00 0.00 0.00 44 1014.3
20260506173026 53 301 10.0 16.0 0.00 0.00 0.00 43 1014.3
20260506172520 53 306 9.0 19.0 0.00 0.00 0.00 45 1014.2
20260506172030 53 309 10.0 19.0 0.00 0.00 0.00 41 1014.3
20260506171536 53 278 5.0 15.0 0.00 0.00 0.00 44 1014.3
20260506171100 53 303 8.0 17.0 0.00 0.00 0.00 43 1014.4
20260506170521 54 287 11.0 17.0 0.00 0.00 0.00 42 1014.5
20260506170033 53 277 3.0 14.0 0.00 0.00 0.00 44 1014.4
20260506165525 52 309 8.0 16.0 0.00 0.00 0.00 43 1014.5
20260506165040 52 318 9.0 16.0 0.00 0.00 0.00 43 1014.6
20260506164521 52 285 7.0 17.0 0.00 0.00 0.00 46 1014.4
20260506164038 53 312 7.0 17.0 0.00 0.00 0.00 43 1014.5
20260506163535 53 294 8.0 14.0 0.00 0.00 0.00 42 1014.6
20260506163031 52 313 8.0 16.0 0.00 0.00 0.00 46 1014.6
20260506162518 53 296 9.0 21.0 0.00 0.00 0.00 43 1014.6
20260506162034 53 321 9.0 17.0 0.00 0.00 0.00 46 1014.6
20260506161522 52 306 5.0 17.0 0.00 0.00 0.00 46 1014.6
20260506161037 52 281 10.0 17.0 0.00 0.00 0.00 43 1014.6
20260506160543 52 331 9.0 17.0 0.00 0.00 0.00 45 1014.6
20260506160033 52 329 12.0 19.0 0.00 0.00 0.00 45 1014.5
20260506155530 52 298 10.0 15.0 0.00 0.00 0.00 47 1014.5
20260506155028 51 296 8.0 19.0 0.00 0.00 0.00 45 1014.5
20260506154529 52 297 9.0 19.0 0.00 0.00 0.00 43 1014.5
20260506154025 52 292 10.0 15.0 0.00 0.00 0.00 46 1014.5
20260506153519 52 309 8.0 15.0 0.00 0.00 0.00 44 1014.5
20260506153053 52 303 9.0 15.0 0.00 0.00 0.00 47 1014.4
20260506152536 52 341 8.0 16.0 0.00 0.00 0.00 45 1014.4
20260506152032 52 327 11.0 16.0 0.00 0.00 0.00 46 1014.5
20260506151520 52 314 5.0 16.0 0.00 0.00 0.00 47 1014.5
20260506151021 52 326 9.0 16.0 0.00 0.00 0.00 45 1014.5
20260506150542 52 287 7.0 15.0 0.00 0.00 0.00 46 1014.6
20260506150043 52 337 9.0 14.0 0.00 0.00 0.00 46 1014.6
20260506145518 52 317 6.0 12.0 0.00 0.00 0.00 48 1014.5
20260506145036 52 317 7.0 14.0 0.00 0.00 0.00 48 1014.6
20260506144531 52 291 6.0 10.0 0.00 0.00 0.00 49 1014.5
20260506144034 51 237 5.0 14.0 0.00 0.00 0.00 50 1014.5
20260506143529 51 327 7.0 14.0 0.00 0.00 0.00 47 1014.5
20260506143021 51 322 9.0 14.0 0.00 0.00 0.00 48 1014.5
20260506142525 50 315 8.0 12.0 0.00 0.00 0.00 49 1014.5